TimeEDT,TemperatureF,Dew PointF,Humidity,Sea Level PressureIn,VisibilityMPH,Wind Direction,Wind SpeedMPH,Gust SpeedMPH,PrecipitationIn,Events,Conditions,WindDirDegrees,DateUTC
12:15 AM,39.2,37.4,93,29.72,9.0,Calm,Calm,-,N/A,,Mostly Cloudy,0,2012-03-26 04:15:00
12:52 AM,41.0,39.9,96,29.72,9.0,Calm,Calm,-,N/A,,Overcast,0,2012-03-26 04:52:00
1:52 AM,41.0,39.0,93,29.70,9.0,Calm,Calm,-,N/A,,Mostly Cloudy,0,2012-03-26 05:52:00
2:28 AM,39.2,39.2,100,29.67,8.0,Calm,Calm,-,N/A,,Mostly Cloudy,0,2012-03-26 06:28:00
2:52 AM,39.9,39.0,97,29.68,9.0,SSW,3.5,-,N/A,,Overcast,200,2012-03-26 06:52:00
3:21 AM,41.0,39.2,93,29.65,8.0,Calm,Calm,-,N/A,,Overcast,0,2012-03-26 07:21:00
3:52 AM,41.0,39.0,93,29.65,8.0,Calm,Calm,-,N/A,,Overcast,0,2012-03-26 07:52:00
4:02 AM,39.2,39.2,100,29.64,7.0,Calm,Calm,-,N/A,,Overcast,0,2012-03-26 08:02:00
4:12 AM,41.0,39.2,93,29.64,7.0,Calm,Calm,-,N/A,,Overcast,0,2012-03-26 08:12:00
4:52 AM,41.0,39.9,96,29.64,8.0,South,3.5,-,N/A,,Overcast,190,2012-03-26 08:52:00
5:00 AM,41.0,39.2,93,29.63,8.0,Calm,Calm,-,N/A,,Overcast,0,2012-03-26 09:00:00
5:35 AM,41.0,39.2,93,29.63,8.0,Calm,Calm,-,N/A,,Mostly Cloudy,0,2012-03-26 09:35:00
5:52 AM,39.9,39.9,100,29.64,7.0,Calm,Calm,-,N/A,,Mostly Cloudy,0,2012-03-26 09:52:00
6:52 AM,37.0,37.0,100,29.64,4.0,SW,3.5,-,N/A,,Scattered Clouds,230,2012-03-26 10:52:00
7:42 AM,42.8,41.0,93,29.67,7.0,NNW,11.5,17.3,N/A,,Overcast,340,2012-03-26 11:42:00
7:52 AM,44.1,39.0,82,29.70,6.0,North,15.0,29.9,0.00,Rain,Light Rain,10,2012-03-26 11:52:00
8:34 AM,42.8,33.8,70,29.72,10.0,NNW,17.3,24.2,0.01,,Overcast,340,2012-03-26 12:34:00
8:52 AM,41.0,30.0,65,29.76,10.0,NNW,13.8,26.5,0.01,,Overcast,340,2012-03-26 12:52:00
9:52 AM,39.9,25.0,55,29.78,10.0,NW,24.2,33.4,N/A,,Partly Cloudy,310,2012-03-26 13:52:00
10:52 AM,39.9,18.0,41,29.81,10.0,WNW,19.6,32.2,N/A,,Clear,300,2012-03-26 14:52:00
12:52 PM,39.9,12.0,32,29.82,10.0,North,20.7,34.5,N/A,,Clear,350,2012-03-26 16:52:00
1:52 PM,39.9,10.9,31,29.81,10.0,NNW,21.9,35.7,N/A,,Partly Cloudy,330,2012-03-26 17:52:00
2:52 PM,39.9,9.0,28,29.83,10.0,NW,27.6,39.1,N/A,,Partly Cloudy,320,2012-03-26 18:52:00
3:52 PM,39.9,8.1,27,29.83,10.0,NNW,23.0,39.1,N/A,,Clear,340,2012-03-26 19:52:00
4:52 PM,39.0,8.1,28,29.85,10.0,North,19.6,36.8,N/A,,Scattered Clouds,360,2012-03-26 20:52:00
5:52 PM,36.0,9.0,33,29.89,10.0,North,21.9,38.0,N/A,,Scattered Clouds,360,2012-03-26 21:52:00
6:52 PM,33.1,9.0,37,29.93,10.0,North,19.6,33.4,N/A,,Mostly Cloudy,350,2012-03-26 22:52:00
7:52 PM,32.0,6.1,34,29.96,10.0,NNW,16.1,32.2,N/A,,Clear,340,2012-03-26 23:52:00
8:52 PM,30.0,6.1,36,30.00,10.0,NNW,21.9,27.6,N/A,,Clear,340,2012-03-27 00:52:00
9:52 PM,30.0,3.9,33,30.02,10.0,NW,17.3,27.6,N/A,,Clear,320,2012-03-27 01:52:00
10:52 PM,30.0,1.9,30,30.04,10.0,NNW,19.6,25.3,N/A,,Clear,330,2012-03-27 02:52:00
11:52 PM,28.9,1.0,30,30.05,10.0,NNW,18.4,28.8,N/A,,Clear,340,2012-03-27 03:52:00